Flag for Switzerland Weather past 2 weeks in Lugano, Switzerland

Now
82 °F

Broken clouds.


Feels Like: 85 °F
Forecast: 66 / 88 °F
Wind: 2 mph from North

Location: Lugano Airport

Current Time: Aug 4, 2015 at 6:30:14 PM

Latest Report: Aug 4, 2015 at 5:50 PM


Visibility: N/A

Pressure: 29.95 "Hg

Humidity: 62%

Dew point: 68 °F

Location of LuganoLocation

Historic Weather in Lugano — Graph

°F

Lugano temperature yesterday

Maximum temperature yesterday: 86 °F (at 3:20 PM)
Minimum temperature yesterday: 63 °F (at 3:50 AM)
Average temperature yesterday: 74 °F

Past Weeks' High & Low Weather Summary

 TemperatureHumidityPressure
High95 °F (Jul 21, 3:20 PM)100% (Jul 29, 4:50 AM)30.09 "Hg (Jul 29, 4:50 AM)
Low57 °F (Aug 2, 5:50 AM)27% (Jul 26, 12:50 AM)29.65 "Hg (Jul 27, 4:20 PM)
Average76 °F67%29.89 "Hg
* Reported Jul 20 5:20 PM — Aug 4 5:20 PM, Lugano, Weather by CustomWeather, © 2015

Note: Actual official high and low records may vary slightly from our data, if they occured in-between our weather recording intervals... More about our weather records

Advertising

Lugano weather history for previous 24 hours

 ConditionsComfort  
Time TempWeatherWind HumidityBarometerVisibility
5:20 PM
Tue, Aug 4
82 °FScattered showers. Broken clouds.6 mph55%29.98 "HgN/A
4:50 PM84 °FScattered showers. Broken clouds.6 mph55%29.98 "HgN/A
4:20 PM86 °FBroken clouds.6 mph52%29.95 "HgN/A
3:50 PM86 °FScattered clouds.5 mph52%29.95 "HgN/A
3:20 PM84 °FScattered clouds.6 mph58%29.98 "HgN/A
2:50 PM84 °FPartly sunny.6 mph58%29.98 "HgN/A
2:20 PM81 °FPartly sunny.6 mph66%29.98 "HgN/A
1:50 PM82 °FPartly sunny.5 mph62%29.98 "HgN/A
1:20 PM82 °FScattered clouds.5 mph58%29.98 "HgN/A
12:50 PM84 °FScattered clouds.3 mph51%29.98 "HgN/A
12:20 PM84 °FScattered clouds.5 mph51%30.01 "HgN/A
11:50 AM82 °FPassing clouds.5 mph55%30.01 "HgN/A
11:20 AM79 °FPassing clouds.5 mph70%30.01 "HgN/A
10:50 AM81 °FPassing clouds.2 mph66%30.01 "HgN/A
10:20 AM79 °FPassing clouds.1 mph74%30.01 "HgN/A
9:50 AM75 °FSunny.3 mph74%30.04 "Hg10 mi
9:20 AM77 °FSunny.1 mph69%30.04 "Hg10 mi
8:50 AM73 °FSunny.1 mph78%30.04 "Hg10 mi
8:20 AM72 °FSunny.1 mph83%30.04 "Hg10 mi
7:50 AM68 °FSunny.1 mph94%30.04 "Hg10 mi
7:20 AM68 °FSunny.2 mph88%30.04 "Hg10 mi
6:50 AM68 °FPassing clouds.3 mph88%30.04 "HgN/A
6:20 AM68 °FPassing clouds.1 mph88%30.04 "HgN/A
5:50 AM66 °FFog.3 mph94%30.04 "Hg2 mi
5:20 AM66 °FClear.5 mph94%30.04 "Hg10 mi
4:50 AM68 °FClear.2 mph88%30.04 "Hg10 mi
4:20 AM68 °FClear.2 mph88%30.04 "Hg10 mi
3:50 AM68 °FMild.2 mph88%30.04 "HgN/A
3:20 AM68 °FPassing clouds.3 mph88%30.07 "HgN/A
2:50 AM68 °FPassing clouds.3 mph94%30.07 "HgN/A
2:20 AM70 °FClear.1 mph88%30.07 "Hg10 mi
1:50 AM70 °FClear.2 mph88%30.07 "Hg10 mi
1:20 AM70 °FClear.2 mph88%30.07 "Hg10 mi
12:50 AM72 °FClear.1 mph83%30.07 "Hg10 mi
12:20 AM70 °FClear.2 mph88%30.04 "Hg10 mi
11:20 PM
Mon, Aug 3
72 °FClear.No wind83%30.04 "Hg10 mi
10:50 PM73 °FClear.1 mph78%30.04 "Hg10 mi
10:20 PM75 °FClear.1 mph74%30.04 "Hg10 mi
9:50 PM75 °FSunny.2 mph74%30.04 "Hg10 mi
9:20 PM75 °FSunny.2 mph78%30.01 "Hg10 mi
8:50 PM77 °FSunny.2 mph74%30.01 "Hg10 mi
8:20 PM81 °FSunny.1 mph62%30.01 "Hg10 mi
7:50 PM82 °FSunny.2 mph55%30.01 "Hg10 mi
7:20 PM86 °FPassing clouds.6 mph52%30.01 "HgN/A
6:50 PM86 °FPassing clouds.7 mph52%30.01 "HgN/A
6:20 PM86 °FPassing clouds.7 mph49%30.01 "HgN/A
Weather by CustomWeather, © 2015

See weather overviewHow to use our weather pages